• In Hungary
  • List of Countries
  • For 7 days
  • Water Temperature
  • Satellite Maps
  • Weather Map
  • News
  • Weather Widgets
  • user-avatar
    Login

    Hourly Weather Inesti

    Today, 15 October, Monday

    Time Temperature Precipitation Wind Pressure Humidity
    00:00 +13°C° 0 mm 1 mps 764 mmHg 50%
    01:00 +13°C° 0 mm 1 mps 764 mmHg 51%
    02:00 +12°C° 0 mm 1 mps 764 mmHg 53%
    03:00 +12°C° 0 mm 1 mps 764 mmHg 54%
    04:00 +11°C° 0 mm 1 mps 763 mmHg 55%
    05:00 +11°C° 0 mm 1 mps 763 mmHg 56%
    06:00 +12°C° 0 mm 1 mps 763 mmHg 54%
    07:00 +12°C° 0 mm 1 mps 763 mmHg 52%
    08:00 +13°C° 0 mm 1 mps 764 mmHg 47%
    09:00 +15°C° 0 mm 2 mps 763 mmHg 42%
    10:00 +17°C° 0 mm 2 mps 763 mmHg 37%
    11:00 +19°C° 0 mm 3 mps 763 mmHg 33%
    12:00 +20°C° 0 mm 3 mps 763 mmHg 31%
    13:00 +21°C° 0 mm 3 mps 762 mmHg 30%
    14:00 +22°C° 0 mm 3 mps 762 mmHg 28%
    15:00 +21°C° 0 mm 3 mps 762 mmHg 32%
    16:00 +20°C° 0 mm 2 mps 762 mmHg 36%
    17:00 +19°C° 0 mm 2 mps 761 mmHg 40%
    18:00 +18°C° 0 mm 2 mps 761 mmHg 43%
    19:00 +17°C° 0 mm 2 mps 761 mmHg 47%
    20:00 +16°C° 0 mm 2 mps 761 mmHg 50%
    21:00 +16°C° 0 mm 1 mps 761 mmHg 53%
    22:00 +15°C° 0 mm 1 mps 761 mmHg 55%
    23:00 +15°C° 0 mm 1 mps 761 mmHg 58%

    Tomorrow, 16 October, Tuesday

    Time Temperature Precipitation Wind Pressure Humidity
    00:00 +15°C° 0 mm 1 mps 761 mmHg 60%
    01:00 +14°C° 0 mm 1 mps 761 mmHg 63%
    02:00 +14°C° 0 mm 1 mps 761 mmHg 65%
    03:00 +13°C° 0 mm 1 mps 761 mmHg 66%
    04:00 +13°C° 0 mm 1 mps 761 mmHg 68%
    05:00 +13°C° 0 mm 1 mps 761 mmHg 70%
    06:00 +13°C° 0 mm 1 mps 761 mmHg 67%
    07:00 +14°C° 0 mm 1 mps 761 mmHg 64%
    08:00 +15°C° 0 mm 1 mps 761 mmHg 62%
    09:00 +18°C° 0 mm 1 mps 761 mmHg 55%
    10:00 +19°C° 0 mm 2 mps 761 mmHg 48%
    11:00 +21°C° 0 mm 2 mps 761 mmHg 42%
    12:00 +22°C° 0 mm 3 mps 761 mmHg 39%
    13:00 +24°C° 0 mm 3 mps 761 mmHg 36%
    14:00 +25°C° 0 mm 3 mps 760 mmHg 34%
    15:00 +24°C° 0 mm 2 mps 760 mmHg 37%
    16:00 +23°C° 0 mm 2 mps 760 mmHg 40%
    17:00 +21°C° 0 mm 2 mps 760 mmHg 43%
    18:00 +21°C° 0 mm 1 mps 760 mmHg 46%
    19:00 +21°C° 0 mm 1 mps 760 mmHg 49%
    20:00 +20°C° 0 mm 1 mps 760 mmHg 51%
    21:00 +19°C° 0 mm 1 mps 760 mmHg 53%
    22:00 +19°C° 0 mm 1 mps 760 mmHg 55%
    23:00 +18°C° 0 mm 1 mps 760 mmHg 57%

    Day after tomorrow, 17 October, Wednesday

    Time Temperature Precipitation Wind Pressure Humidity
    00:00 +18°C° 0 mm 1 mps 760 mmHg 59%
    01:00 +16°C° 0 mm 1 mps 760 mmHg 62%
    02:00 +16°C° 0 mm 1 mps 760 mmHg 64%
    03:00 +15°C° 0 mm 1 mps 760 mmHg 66%
    04:00 +15°C° 0 mm 1 mps 760 mmHg 68%
    05:00 +15°C° 0 mm 1 mps 760 mmHg 71%
    06:00 +15°C° 0 mm 1 mps 760 mmHg 69%
    07:00 +16°C° 0 mm 1 mps 760 mmHg 67%
    08:00 +16°C° 0 mm 1 mps 760 mmHg 65%
    09:00 +18°C° 0 mm 2 mps 760 mmHg 58%
    10:00 +20°C° 0 mm 2 mps 760 mmHg 52%
    11:00 +22°C° 0 mm 3 mps 760 mmHg 45%
    12:00 +24°C° 0 mm 3 mps 760 mmHg 41%
    13:00 +25°C° 0 mm 3 mps 759 mmHg 38%
    14:00 +25°C° 0 mm 3 mps 759 mmHg 34%
    15:00 +24°C° 0 mm 3 mps 759 mmHg 37%
    16:00 +22°C° 0 mm 3 mps 759 mmHg 40%
    17:00 +21°C° 0 mm 2 mps 758 mmHg 43%
    18:00 +20°C° 0 mm 2 mps 759 mmHg 46%
    19:00 +19°C° 0 mm 2 mps 759 mmHg 49%
    20:00 +18°C° 0 mm 2 mps 759 mmHg 51%
    21:00 +17°C° 0 mm 2 mps 759 mmHg 53%
    22:00 +17°C° 0 mm 2 mps 759 mmHg 54%
    23:00 +16°C° 0 mm 2 mps 759 mmHg 56%

    18 October, Thursday

    Time Temperature Precipitation Wind Pressure Humidity
    00:00 +16°C° 0 mm 2 mps 759 mmHg 57%
    01:00 +15°C° 0 mm 2 mps 759 mmHg 58%
    02:00 +15°C° 0 mm 1 mps 759 mmHg 59%
    03:00 +14°C° 0 mm 1 mps 759 mmHg 60%
    04:00 +14°C° 0 mm 1 mps 758 mmHg 62%
    05:00 +14°C° 0 mm 1 mps 758 mmHg 63%
    06:00 +14°C° 0 mm 2 mps 758 mmHg 61%
    07:00 +15°C° 0 mm 2 mps 758 mmHg 60%
    08:00 +15°C° 0 mm 2 mps 758 mmHg 58%
    09:00 +17°C° 0 mm 2 mps 758 mmHg 52%
    10:00 +19°C° 0 mm 3 mps 758 mmHg 46%
    11:00 +21°C° 0 mm 3 mps 758 mmHg 39%
    12:00 +22°C° 0 mm 3 mps 758 mmHg 36%
    13:00 +24°C° 0 mm 3 mps 757 mmHg 33%
    14:00 +24°C° 0 mm 3 mps 757 mmHg 30%
    15:00 +22°C° 0 mm 3 mps 757 mmHg 33%
    16:00 +21°C° 0 mm 2 mps 757 mmHg 35%
    17:00 +20°C° 0 mm 2 mps 756 mmHg 38%
    18:00 +19°C° 0 mm 2 mps 757 mmHg 40%
    19:00 +19°C° 0 mm 1 mps 757 mmHg 42%
    20:00 +18°C° 0 mm 1 mps 757 mmHg 45%
    21:00 +16°C° 0 mm 1 mps 757 mmHg 47%
    22:00 +16°C° 0 mm 1 mps 757 mmHg 48%
    23:00 +15°C° 0 mm 1 mps 757 mmHg 50%

    19 October, Friday

    Time Temperature Precipitation Wind Pressure Humidity
    00:00 +15°C° 0 mm 1 mps 757 mmHg 51%
    01:00 +14°C° 0 mm 1 mps 756 mmHg 53%
    02:00 +14°C° 0 mm 1 mps 756 mmHg 54%
    03:00 +14°C° 0 mm 1 mps 756 mmHg 55%
    04:00 +13°C° 0 mm 1 mps 756 mmHg 56%
    05:00 +13°C° 0 mm 1 mps 756 mmHg 57%
    06:00 +14°C° 0 mm 1 mps 756 mmHg 56%
    07:00 +14°C° 0 mm 1 mps 756 mmHg 55%
    08:00 +15°C° 0 mm 1 mps 756 mmHg 54%
    09:00 +16°C° 0 mm 1 mps 756 mmHg 49%
    10:00 +19°C° 0 mm 1 mps 756 mmHg 45%
    11:00 +20°C° 0 mm 1 mps 756 mmHg 41%
    12:00 +21°C° 0 mm 1 mps 755 mmHg 39%
    13:00 +21°C° 0 mm 1 mps 755 mmHg 38%
    14:00 +22°C° 0 mm 1 mps 755 mmHg 36%
    15:00 +21°C° 0 mm 1 mps 755 mmHg 38%
    16:00 +20°C° 0 mm 1 mps 754 mmHg 41%
    17:00 +19°C° 0 mm 1 mps 754 mmHg 43%
    18:00 +19°C° 0 mm 1 mps 754 mmHg 45%
    19:00 +18°C° 0 mm 1 mps 755 mmHg 46%
    20:00 +16°C° 0 mm 1 mps 755 mmHg 48%
    21:00 +16°C° 0 mm 1 mps 755 mmHg 49%
    22:00 +15°C° 0 mm 1 mps 755 mmHg 50%
    23:00 +15°C° 0 mm 1 mps 755 mmHg 52%

    20 October, Saturday

    Time Temperature Precipitation Wind Pressure Humidity
    00:00 +15°C° 0 mm 1 mps 755 mmHg 53%
    01:00 +14°C° 0 mm 1 mps 754 mmHg 54%
    02:00 +14°C° 0 mm 1 mps 754 mmHg 56%
    03:00 +13°C° 0 mm 1 mps 754 mmHg 57%
    04:00 +13°C° 0 mm 1 mps 754 mmHg 58%
    05:00 +12°C° 0 mm 2 mps 754 mmHg 60%
    06:00 +13°C° 0 mm 2 mps 754 mmHg 60%
    07:00 +13°C° 0 mm 2 mps 755 mmHg 59%
    08:00 +14°C° 0 mm 2 mps 755 mmHg 59%
    09:00 +14°C° 0 mm 3 mps 755 mmHg 55%
    10:00 +17°C° 0 mm 3 mps 755 mmHg 51%
    11:00 +19°C° 0 mm 4 mps 755 mmHg 47%
    12:00 +19°C° 0 mm 4 mps 755 mmHg 46%
    13:00 +19°C° 0 mm 5 mps 755 mmHg 45%
    14:00 +20°C° 0 mm 5 mps 754 mmHg 44%
    15:00 +19°C° 0 mm 5 mps 754 mmHg 48%
    16:00 +18°C° 0 mm 4 mps 754 mmHg 51%
    17:00 +18°C° 0 mm 3 mps 754 mmHg 54%
    18:00 +17°C° 0 mm 3 mps 755 mmHg 58%
    19:00 +16°C° 0 mm 3 mps 755 mmHg 61%
    20:00 +16°C° 0 mm 3 mps 755 mmHg 64%
    21:00 +14°C° 0 mm 3 mps 755 mmHg 66%
    22:00 +14°C° 0 mm 3 mps 755 mmHg 69%
    23:00 +13°C° 0 mm 3 mps 755 mmHg 72%
    Show more